RH
8 10 10 11 12 14 16 22 25 29 22 17 14 16 16 20 20 19 17 19 33 98 100 100 100 100 89 88 89 99 88 100 100 100 100 100 100 100 100 100 98 99 100 100
10 10 12 12 13 14 15 22 26 24 22 19 15 14 16 17 18 18 18 19 24 84 100 100 100 100 100 100 96 71 69 75 86 100 100 100 100 100 100 100 100 100 100 100
13 11 10 12 13 13 15 18 21 22 24 21 16 15 16 18 17 18 18 18 20 25 85 100 100 100 100 100 100 100 91 74 75 76 89 100 100 100 100 97 98 100 100 100
14 13 12 12 13 14 15 16 17 20 23 23 19 19 17 18 18 19 18 19 20 19 24 93 100 100 100 100 100 100 100 99 94 94 99 100 100 100 100 100 100 100 100 100
14 16 16 16 16 14 14 15 16 18 24 25 22 22 22 18 21 21 19 16 18 18 18 22 77 100 99 100 100 100 100 100 100 100 100 100 100 100 100 100 100 100 100 100
16 17 17 15 16 16 15 15 17 20 23 26 23 21 22 22 22 21 21 19 15 18 20 20 22 77 100 100 100 100 100 100 93 91 99 100 100 100 100 100 100 100 100 100
16 22 22 21 18 18 18 17 18 19 23 29 24 22 31 21 23 22 22 22 20 15 16 20 22 23 71 100 100 100 100 99 96 96 97 100 100 100 100 100 100 100 100 100
14 17 23 27 24 23 20 21 22 22 23 28 23 25 29 24 26 25 24 22 25 23 18 18 18 34 48 70 100 100 100 100 100 97 95 97 100 100 100 100 100 100 100 100
10 16 19 20 22 24 24 24 23 23 24 28 24 27 27 26 24 26 25 26 31 25 32 18 19 18 31 55 54 80 100 100 100 100 100 100 100 100 100 100 100 100 100 100
9 13 17 21 23 24 22 21 21 23 26 25 23 24 29 25 25 26 27 25 26 26 26 27 22 18 19 19 27 43 68 97 100 100 100 100 100 100 100 100 100 100 100 100
12 10 14 17 22 24 26 26 27 28 28 27 29 29 32 28 30 28 26 27 28 30 30 39 34 37 21 20 21 23 34 78 100 100 98 100 100 100 100 100 100 100 100 100
10 14 12 16 18 20 21 22 23 26 29 29 32 35 38 33 35 38 31 31 30 31 41 35 45 54 34 26 21 17 24 39 55 78 91 95 96 96 100 100 100 100 100 100
7 13 14 12 15 20 22 21 21 25 29 33 31 59 55 59 38 30 33 36 38 33 29 34 50 33 31 26 26 27 21 19 22 33 45 57 67 74 79 80 83 85 92 97
7 8 12 14 13 13 18 18 18 19 28 44 45 61 88 60 47 28 27 33 36 38 32 28 25 26 30 26 24 24 27 30 28 26 32 38 44 51 51 51 54 54 66 82
9 7 8 14 16 14 14 13 15 20 26 23 60 46 60 62 35 36 38 40 32 32 34 34 35 31 29 30 28 26 27 25 28 32 29 30 36 40 42 42 40 39 45 53
9 6 7 8 16 18 18 15 13 13 15 22 25 29 29 32 34 32 32 33 28 27 27 26 29 28 25 23 24 22 20 19 22 26 26 35 38 35 29 32 39 46 49 55
7 7 6 7 8 15 22 18 17 16 14 14 18 26 19 21 22 24 25 26 26 28 27 26 26 25 24 22 21 19 18 19 19 20 20 20 36 43 31 40 38 44 46 45
6 6 6 7 9 13 16 17 21 20 19 19 17 16 16 18 19 21 25 24 23 24 27 29 31 28 25 20 18 19 20 20 21 22 21 21 22 27 33 43 39 30 31 31
6 6 7 7 9 15 12 12 23 25 19 22 25 22 21 20 20 22 17 18 17 17 17 18 19 22 23 24 23 23 22 22 22 23 24 23 22 23 23 25 24 24 29 33
5 6 6 8 8 12 11 11 17 32 32 31 28 26 26 26 30 22 29 33 38 36 36 25 19 19 21 22 23 25 24 25 25 26 27 28 28 26 27 27 26 26 26 35
5 6 7 8 9 12 9 10 19 29 38 38 39 35 32 32 37 30 36 40 45 43 42 38 37 31 25 24 26 28 29 32 33 32 34 35 35 34 32 32 31 34 38 44
5 6 7 9 9 9 7 18 18 27 31 37 41 42 41 41 39 37 45 47 48 53 51 55 52 46 40 36 33 30 31 33 35 37 39 39 39 40 38 39 58 60 65 70
6 6 7 10 11 10 11 15 17 20 24 30 36 41 43 43 47 56 53 42 49 60 61 67 72 68 73 64 55 44 41 40 38 37 36 38 39 39 42 46 56 83 100 95
6 8 8 10 10 11 13 17 21 23 25 27 34 37 39 38 35 40 43 51 57 50 53 60 68 81 79 78 79 70 71 72 64 60 55 52 53 53 54 59 70 84 88 99
7 8 8 8 8 12 14 21 23 21 22 22 25 32 37 45 43 42 40 40 50 61 60 56 54 62 82 82 82 83 81 80 79 70 69 71 70 72 78 84 87 90 92 97
6 7 8 7 14 16 18 20 18 21 26 26 26 24 28 38 47 45 43 45 51 63 65 62 64 64 70 72 79 81 80 85 90 89 80 75 80 86 90 94 99 100 100 100
Wind_Speed
52 57 61 65 66 70 77 80 82 84 84 83 81 83 81 83 89 90 89 89 92 101 100 96 91 88 89 70 59 61 70 71 72 74 71 70 70 69 68 68 67 67 65 64
47 56 62 65 66 71 74 80 84 85 84 83 81 80 83 82 86 88 90 91 91 100 104 102 96 92 87 90 81 75 71 71 70 72 73 73 72 69 71 70 68 67 67 67
44 51 57 61 63 67 72 76 84 86 83 83 81 77 78 81 82 85 88 89 93 95 102 105 102 97 92 89 90 89 83 77 75 73 74 72 72 72 70 68 67 68 69 69
37 45 51 53 59 65 70 73 76 81 82 81 82 77 78 80 83 81 85 88 93 97 97 104 106 103 98 94 91 90 88 88 85 76 76 79 77 76 79 79 77 76 76 75
29 37 46 51 57 61 64 67 69 73 78 81 82 80 81 81 81 81 87 87 90 95 97 98 105 107 105 100 97 96 93 92 90 88 84 80 76 77 79 80 81 80 79 78
26 33 41 49 51 55 59 61 63 67 71 77 83 82 84 82 84 84 87 87 89 93 95 100 101 107 109 107 102 100 99 97 95 92 89 87 86 84 83 82 82 82 82 82
25 30 37 41 46 50 54 57 58 61 64 69 77 77 79 83 84 88 90 89 92 93 95 97 98 103 109 111 108 104 101 100 97 95 93 91 88 87 86 85 84 83 82 83
24 30 37 42 46 51 55 56 56 56 58 65 70 69 73 77 80 88 90 91 94 93 97 96 99 102 107 109 113 109 104 102 100 98 96 94 92 90 88 88 88 88 88 87
25 29 34 41 46 48 52 52 54 55 58 61 63 65 71 73 79 85 90 91 96 98 100 98 98 99 102 107 107 114 113 108 105 102 99 97 96 94 92 91 91 91 90 90
23 30 35 40 42 45 47 51 51 52 53 56 59 63 69 72 77 82 85 89 93 96 99 100 101 99 100 100 103 108 112 115 110 107 104 101 98 97 96 95 95 93 91 91
19 27 34 39 43 49 50 51 53 56 55 54 57 61 67 71 75 80 81 84 88 94 97 101 102 104 100 100 98 98 104 113 113 110 109 106 104 103 101 101 101 99 97 96
16 23 32 35 42 46 49 51 51 51 51 54 57 61 67 68 71 76 79 81 86 90 97 100 103 106 105 100 98 95 93 97 105 110 110 111 112 110 109 109 108 106 104 105
17 21 27 35 39 43 48 53 55 55 56 55 59 57 63 68 74 77 79 81 86 90 93 97 104 103 102 99 97 96 92 92 92 95 99 103 105 105 106 107 105 106 103 103
23 21 24 29 34 42 47 53 55 58 55 56 52 59 62 72 75 77 75 77 82 86 89 90 93 96 100 98 96 95 96 97 96 94 95 96 95 96 95 96 98 99 98 99
25 24 22 25 30 34 42 49 50 53 57 59 60 63 70 75 77 74 74 78 79 82 85 85 87 88 89 90 90 91 93 92 92 96 94 94 94 95 94 92 90 90 91 91
25 27 21 23 27 31 33 36 43 50 54 54 63 63 74 73 73 73 73 74 77 78 80 80 81 84 84 84 83 85 84 80 81 79 80 83 83 85 86 85 85 84 84 84
22 28 24 22 24 25 29 36 33 34 41 45 47 60 59 65 69 70 71 71 72 74 75 78 80 80 81 81 80 79 77 75 73 73 73 75 81 83 79 80 79 80 82 84
24 26 22 23 20 23 32 28 28 31 33 33 40 49 49 52 54 55 60 65 65 66 70 73 75 77 77 75 74 73 72 71 71 70 69 70 72 73 74 75 76 78 78 80
22 23 23 23 22 28 30 26 26 28 30 29 34 36 37 39 40 48 47 46 45 45 52 58 61 66 70 73 72 70 66 64 63 62 64 65 65 65 65 66 67 69 72 73
22 24 22 25 24 26 31 23 21 24 28 29 32 31 32 32 36 36 32 34 36 39 43 45 46 50 55 61 63 66 65 63 61 60 58 58 60 60 61 62 64 66 66 66
20 21 21 24 24 28 30 21 20 24 28 30 32 33 33 33 35 31 28 31 34 35 34 35 37 41 43 47 52 57 60 62 61 60 60 59 59 60 60 60 61 60 58 56
20 21 26 26 25 29 19 22 24 25 28 30 32 33 33 34 34 33 32 33 32 31 31 33 33 34 36 38 42 45 50 53 55 59 60 60 60 59 59 57 56 54 54 54
18 24 24 25 29 27 23 26 25 26 28 29 30 32 33 33 34 34 35 34 33 33 32 32 34 34 33 32 34 36 39 42 46 48 50 52 53 53 53 52 51 52 54 56
19 24 26 28 26 27 24 23 26 27 29 29 29 30 31 32 32 34 35 34 35 35 35 34 34 35 35 35 34 34 35 36 37 39 42 44 46 48 49 49 49 50 54 57
20 28 30 30 28 26 26 25 30 29 29 28 28 28 28 29 29 31 32 33 34 33 34 36 35 35 35 36 36 36 35 34 37 37 38 40 42 42 42 43 43 43 42 40
22 27 30 29 21 28 29 29 29 27 27 27 27 27 26 26 26 27 28 30 32 32 32 33 34 35 37 37 37 38 38 36 33 34 35 37 37 37 35 34 35 36 37 39
Wind_Direction
207 211 214 215 213 213 215 214 215 218 220 219 216 216 219 221 223 223 222 222 222 224 224 226 227 228 229 223 220 234 234 237 242 243 245 247 250 253 254 257 258 262 265 268
204 208 212 214 213 212 214 214 217 219 222 221 218 216 219 222 223 223 223 222 223 224 225 226 227 228 229 231 228 231 233 235 237 241 247 250 251 254 255 257 258 260 264 269
204 210 212 213 213 214 215 217 217 218 221 223 221 219 220 223 225 225 225 225 225 226 226 227 228 229 230 232 236 236 236 237 239 239 242 246 250 252 254 257 261 264 267 269
206 209 212 215 215 215 216 218 219 220 221 224 224 221 222 222 226 227 226 228 229 228 228 228 230 230 231 232 234 236 240 240 242 245 246 247 249 251 254 258 261 264 267 269
211 213 211 212 216 217 217 220 220 221 222 225 226 223 223 224 227 227 231 227 230 231 229 230 230 232 232 233 234 235 236 239 242 243 246 249 251 254 258 260 263 265 268 271
206 211 213 215 217 218 219 219 221 222 223 226 227 227 230 226 228 228 231 232 230 230 231 231 231 232 233 234 235 236 238 238 240 242 244 247 250 252 255 257 259 261 264 267
203 206 212 215 218 219 220 221 222 223 223 226 230 229 229 229 228 229 230 232 234 233 230 232 233 233 234 235 235 237 240 242 242 243 244 247 250 252 255 258 260 262 265 268
206 210 209 210 214 217 218 220 220 222 223 227 229 230 229 230 228 228 231 232 233 235 237 231 232 233 233 235 235 237 239 241 243 245 246 247 249 252 255 257 260 262 265 267
216 210 215 216 216 218 220 222 222 221 223 227 229 231 233 230 228 229 230 230 233 235 236 238 234 235 235 236 238 238 238 240 241 244 246 248 250 252 254 257 260 262 265 267
238 220 214 213 217 220 222 224 225 224 226 227 229 228 232 232 231 230 231 232 233 236 238 239 241 238 238 238 238 240 241 241 243 245 247 249 251 253 256 258 260 262 265 267
250 242 228 221 217 217 218 221 220 221 222 222 226 229 232 232 234 234 233 235 235 237 237 239 241 244 243 241 241 241 240 241 244 246 248 250 253 255 257 259 261 263 266 268
247 238 236 229 226 223 223 223 224 225 223 223 225 230 232 232 234 236 236 237 238 237 238 240 241 243 247 248 245 244 243 242 243 245 248 250 252 255 257 258 260 263 266 266
247 241 237 235 231 225 222 222 220 221 222 224 224 227 233 236 234 233 233 234 236 239 239 240 242 246 249 251 251 252 250 250 248 248 249 250 251 254 255 258 261 264 266 267
254 238 240 237 235 233 229 228 228 224 222 225 224 226 235 236 236 236 236 236 237 239 242 243 245 247 249 252 254 255 256 257 257 256 256 256 257 259 259 260 263 264 265 266
265 240 236 238 235 234 235 237 235 232 228 227 225 223 231 236 239 238 238 238 240 241 243 245 248 250 252 254 256 257 257 258 258 259 262 262 262 262 261 261 264 263 264 265
269 247 232 236 233 231 232 236 235 234 236 232 234 234 236 240 241 244 241 242 245 246 248 249 249 251 254 254 255 256 256 255 256 256 257 260 263 262 260 260 260 261 262 264
271 245 233 232 237 236 234 233 233 236 237 235 234 237 242 242 246 248 250 248 247 247 250 252 253 254 254 255 256 257 257 256 256 257 257 257 260 260 259 261 261 263 264 266
273 249 238 236 233 238 241 240 234 234 236 236 236 241 243 246 247 249 250 252 251 251 252 253 254 255 257 258 258 257 258 258 258 258 258 258 256 256 258 262 264 265 267 268
274 248 236 238 231 238 247 244 238 238 238 238 241 242 243 245 246 247 248 254 256 252 250 249 249 250 253 256 257 259 259 258 258 257 256 256 257 258 260 261 263 263 265 266
272 250 237 237 236 239 252 248 247 245 246 242 244 245 248 247 248 251 255 254 256 255 255 255 253 250 249 249 251 251 255 257 257 256 256 257 257 258 260 261 262 263 265 267
272 254 243 242 240 238 252 254 249 246 247 246 247 246 246 247 249 250 254 256 256 256 258 258 257 256 254 250 249 248 248 249 252 254 255 256 256 258 260 261 262 264 265 266
271 250 238 241 245 247 266 251 248 249 248 250 251 252 251 249 250 249 250 253 255 258 258 257 259 258 256 254 252 250 248 249 250 251 252 254 256 257 259 261 263 263 264 267
275 256 250 243 242 251 249 250 251 251 254 253 252 252 254 252 250 250 250 249 251 254 255 256 254 255 257 257 255 254 252 251 252 253 252 253 254 254 255 257 257 258 262 266
280 259 247 244 246 246 246 246 247 247 252 256 257 258 259 259 256 250 247 247 249 249 250 251 249 250 255 256 257 257 253 252 251 252 253 254 254 255 256 257 259 261 262 265
279 258 255 249 247 246 243 237 242 244 248 254 258 259 260 258 257 258 257 252 248 247 250 250 250 247 248 251 251 254 254 256 254 253 252 252 252 253 254 255 256 256 255 253
283 262 258 260 245 243 241 241 245 248 252 256 258 260 260 261 258 255 254 254 251 247 249 249 250 249 248 250 251 252 253 251 251 251 253 251 248 247 246 244 244 248 250 254